ACA509 CYYZ-KORD

Flight info

Callsign ACA509
Flight time 1h 6m
Altitude 32000
Route GOPUP4 HOCKE DCT FNT WYNDE2
Aircraft A320/M-SDE3FGHIRWY/LB1

Departure

Time 2026-05-04 16:44
Airport Toronto Pearson International Airport (CYYZ)

Arrival

Time 2026-05-04 17:51
Airport Chicago O'Hare International Airport (KORD)
Time Latitude Longitude Altitude Speed Heading
2026-05-04 16:11 43.67611 -79.61025 562 ft 0 kts 330°
2026-05-04 16:28 43.67610 -79.61025 562 ft 0 kts 330°
2026-05-04 16:28 43.67583 -79.61004 561 ft 2 kts 330°
2026-05-04 16:29 43.67541 -79.60958 560 ft 2 kts 288°
2026-05-04 16:30 43.67546 -79.60912 561 ft 1 kts 236°
2026-05-04 16:31 43.67547 -79.60910 561 ft 0 kts 237°
2026-05-04 16:34 43.67542 -79.60921 560 ft 2 kts 232°
2026-05-04 16:34 43.67524 -79.60922 560 ft 3 kts 152°
2026-05-04 16:35 43.67413 -79.60932 558 ft 9 kts 229°
2026-05-04 16:35 43.67281 -79.61192 558 ft 12 kts 236°
2026-05-04 16:36 43.67297 -79.61291 558 ft 11 kts 314°
2026-05-04 16:36 43.67399 -79.61427 561 ft 9 kts 315°
2026-05-04 16:37 43.67490 -79.61550 563 ft 8 kts 314°
2026-05-04 16:37 43.67534 -79.61607 564 ft 8 kts 316°
2026-05-04 16:37 43.67616 -79.61711 565 ft 7 kts 317°
2026-05-04 16:38 43.67690 -79.61807 567 ft 7 kts 316°
2026-05-04 16:39 43.67799 -79.61949 569 ft 10 kts 319°
2026-05-04 16:39 43.68006 -79.62148 573 ft 26 kts 316°
2026-05-04 16:40 43.68279 -79.62492 570 ft 26 kts 321°
2026-05-04 16:40 43.68560 -79.62852 559 ft 28 kts 316°
2026-05-04 16:41 43.68848 -79.63226 556 ft 27 kts 315°
2026-05-04 16:41 43.69227 -79.63423 550 ft 17 kts
2026-05-04 16:42 43.69408 -79.63515 547 ft 0 kts 225°
2026-05-04 16:43 43.69340 -79.63612 545 ft 43 kts 226°
2026-05-04 16:43 43.68311 -79.65100 588 ft 156 kts 226°
2026-05-04 16:43 43.67550 -79.66208 1076 ft 162 kts 226°
2026-05-04 16:44 43.64921 -79.71297 3180 ft 187 kts 234°
2026-05-04 16:45 43.63269 -79.74590 3839 ft 227 kts 234°
2026-05-04 16:46 43.61074 -79.80682 5798 ft 251 kts 275°
2026-05-04 16:46 43.62900 -79.84769 7417 ft 266 kts 311°
2026-05-04 16:47 43.65559 -79.88300 9026 ft 269 kts 311°
2026-05-04 16:47 43.68212 -79.91921 10528 ft 275 kts 309°
2026-05-04 16:48 43.70324 -79.99550 12117 ft 298 kts 278°
2026-05-04 16:48 43.70605 -80.02389 12817 ft 301 kts 278°
2026-05-04 16:49 43.71171 -80.08141 14103 ft 308 kts 278°
2026-05-04 16:49 43.71758 -80.14042 15338 ft 314 kts 278°
2026-05-04 16:50 43.72353 -80.20067 16543 ft 319 kts 278°
2026-05-04 16:50 43.72951 -80.26167 17700 ft 324 kts 277°
2026-05-04 16:51 43.73287 -80.32389 18784 ft 329 kts 271°
2026-05-04 16:51 43.73298 -80.35571 19327 ft 332 kts 271°
2026-05-04 16:51 43.73311 -80.41988 20387 ft 336 kts 271°
2026-05-04 16:52 43.73321 -80.48484 21406 ft 340 kts 271°
2026-05-04 16:52 43.73324 -80.51764 21907 ft 342 kts 271°
2026-05-04 16:53 43.73329 -80.58369 22869 ft 346 kts 271°
2026-05-04 16:53 43.73329 -80.68501 23953 ft 360 kts 271°
2026-05-04 16:54 43.73327 -80.71962 24395 ft 362 kts 271°
2026-05-04 16:55 43.73306 -80.86004 26030 ft 370 kts 271°
2026-05-04 16:55 43.73289 -80.93115 26770 ft 374 kts 271°
2026-05-04 16:56 43.73268 -81.00328 27467 ft 378 kts 271°
2026-05-04 16:56 43.73227 -81.11255 28455 ft 382 kts 271°
2026-05-04 16:57 43.73211 -81.14951 28775 ft 384 kts 271°
2026-05-04 16:57 43.73175 -81.22350 29362 ft 387 kts 271°
2026-05-04 16:58 43.73112 -81.33562 30223 ft 391 kts 271°
2026-05-04 16:58 43.73089 -81.37292 30533 ft 391 kts 271°
2026-05-04 16:59 43.73001 -81.44808 31068 ft 393 kts 269°
2026-05-04 17:00 43.70768 -81.59687 31858 ft 401 kts 254°
2026-05-04 17:01 43.64322 -81.76932 31860 ft 406 kts 245°
2026-05-04 17:02 43.58783 -81.90490 31854 ft 406 kts 245°
2026-05-04 17:03 43.54604 -82.00639 31852 ft 406 kts 245°
2026-05-04 17:03 43.50425 -82.10768 31854 ft 406 kts 245°
2026-05-04 17:04 43.44926 -82.24318 31852 ft 406 kts 246°
2026-05-04 17:05 43.39510 -82.37917 31858 ft 405 kts 246°
2026-05-04 17:06 43.35450 -82.48052 31857 ft 405 kts 246°
2026-05-04 17:07 43.31804 -82.57133 31854 ft 405 kts 246°
2026-05-04 17:07 43.28633 -82.64996 31862 ft 406 kts 246°
2026-05-04 17:08 43.24972 -82.75401 31869 ft 403 kts 252°
2026-05-04 17:09 43.22966 -82.82544 31871 ft 403 kts 253°
2026-05-04 17:09 43.20956 -82.89692 31871 ft 404 kts 252°
2026-05-04 17:10 43.15911 -83.07572 31859 ft 404 kts 252°
2026-05-04 17:11 43.13878 -83.14745 31852 ft 404 kts 252°
2026-05-04 17:12 43.10827 -83.25466 31860 ft 404 kts 252°
2026-05-04 17:13 43.05736 -83.43258 31858 ft 404 kts 252°
2026-05-04 17:14 43.01645 -83.57476 31865 ft 404 kts 252°
2026-05-04 17:15 42.98572 -83.68188 31868 ft 403 kts 253°
2026-05-04 17:16 42.95877 -83.82916 31860 ft 400 kts 264°
2026-05-04 17:17 42.94409 -83.98004 31858 ft 401 kts 265°
2026-05-04 17:18 42.92945 -84.12993 31857 ft 400 kts 264°
2026-05-04 17:19 42.91457 -84.28044 31860 ft 401 kts 264°
2026-05-04 17:20 42.89953 -84.43044 31859 ft 400 kts 265°
2026-05-04 17:20 42.88815 -84.54267 31862 ft 401 kts 264°
2026-05-04 17:21 42.87271 -84.69283 31864 ft 401 kts 264°
2026-05-04 17:22 42.86492 -84.76800 31862 ft 400 kts 264°
2026-05-04 17:23 42.84923 -84.91784 31854 ft 401 kts 264°
2026-05-04 17:24 42.83729 -85.03033 31846 ft 401 kts 264°
2026-05-04 17:24 42.82521 -85.14294 31688 ft 401 kts 264°
2026-05-04 17:25 42.82122 -85.18008 31681 ft 401 kts 264°
2026-05-04 17:26 42.80495 -85.32990 31674 ft 399 kts 264°
2026-05-04 17:27 42.78286 -85.51666 31670 ft 402 kts 260°
2026-05-04 17:28 42.75663 -85.66403 31668 ft 402 kts 258°
2026-05-04 17:29 42.71665 -85.88500 31657 ft 402 kts 258°
2026-05-04 17:31 42.68303 -86.06885 31673 ft 402 kts 258°
2026-05-04 17:32 42.64918 -86.25218 31671 ft 402 kts 258°
2026-05-04 17:33 42.62180 -86.39899 31659 ft 401 kts 259°
2026-05-04 17:34 42.59433 -86.54553 31655 ft 401 kts 259°
2026-05-04 17:35 42.55868 -86.72846 31644 ft 402 kts 255°
2026-05-04 17:36 42.53988 -86.79968 31645 ft 403 kts 253°
2026-05-04 17:36 42.52069 -86.87077 31648 ft 403 kts 253°
2026-05-04 17:37 42.50143 -86.94177 31648 ft 403 kts 253°
2026-05-04 17:37 42.48212 -87.01279 31643 ft 403 kts 253°
2026-05-04 17:38 42.46269 -87.08399 31644 ft 403 kts 253°
2026-05-04 17:38 42.44334 -87.15461 31458 ft 393 kts 253°
2026-05-04 17:38 42.43406 -87.18838 30497 ft 389 kts 253°
2026-05-04 17:39 42.41531 -87.25676 27652 ft 389 kts 252°
2026-05-04 17:39 42.40614 -87.29001 26612 ft 379 kts 252°
2026-05-04 17:39 42.39700 -87.32310 25515 ft 371 kts 252°
2026-05-04 17:40 42.38820 -87.35490 24402 ft 364 kts 252°
2026-05-04 17:40 42.37944 -87.38664 23256 ft 358 kts 252°
2026-05-04 17:40 42.37085 -87.41768 22161 ft 352 kts 252°
2026-05-04 17:40 42.36240 -87.44815 21160 ft 344 kts 252°
2026-05-04 17:41 42.35428 -87.47734 20566 ft 326 kts 252°
2026-05-04 17:41 42.34652 -87.50516 20063 ft 308 kts 252°
2026-05-04 17:41 42.33723 -87.53024 19432 ft 303 kts 238°
2026-05-04 17:41 42.32275 -87.55086 18603 ft 305 kts 225°
2026-05-04 17:42 42.30617 -87.56860 17806 ft 302 kts 224°
2026-05-04 17:42 42.28988 -87.58580 17055 ft 299 kts 224°
2026-05-04 17:42 42.27372 -87.60288 16263 ft 295 kts 224°
2026-05-04 17:42 42.25766 -87.61983 15502 ft 292 kts 223°
2026-05-04 17:43 42.24191 -87.63638 14775 ft 289 kts 223°
2026-05-04 17:43 42.22635 -87.65273 14005 ft 286 kts 222°
2026-05-04 17:43 42.21071 -87.66914 13276 ft 283 kts 222°
2026-05-04 17:43 42.19526 -87.68532 12538 ft 281 kts 220°
2026-05-04 17:44 42.17795 -87.69679 11748 ft 291 kts 195°
2026-05-04 17:44 42.15760 -87.69578 11027 ft 299 kts 174°
2026-05-04 17:44 42.13728 -87.69005 10346 ft 294 kts 174°
2026-05-04 17:44 42.11753 -87.68483 9654 ft 291 kts 175°
2026-05-04 17:45 42.09785 -87.67982 8958 ft 288 kts 175°
2026-05-04 17:45 42.07838 -87.67493 8259 ft 285 kts 174°
2026-05-04 17:45 42.05909 -87.67012 7686 ft 278 kts 174°
2026-05-04 17:45 42.04051 -87.66543 7259 ft 266 kts 174°
2026-05-04 17:46 42.02260 -87.66092 6826 ft 257 kts 174°
2026-05-04 17:46 42.00532 -87.65707 6302 ft 250 kts 182°
2026-05-04 17:46 41.98933 -87.66177 5597 ft 231 kts 218°
2026-05-04 17:46 41.98040 -87.67786 4996 ft 214 kts 258°
2026-05-04 17:47 41.98135 -87.69710 4477 ft 206 kts 282°
2026-05-04 17:47 41.98455 -87.71543 3989 ft 197 kts 276°
2026-05-04 17:47 41.98637 -87.73267 3530 ft 184 kts 274°
2026-05-04 17:47 41.98771 -87.74963 2833 ft 184 kts 272°
2026-05-04 17:48 41.98877 -87.76636 2305 ft 174 kts 267°
2026-05-04 17:48 41.98870 -87.78149 2161 ft 148 kts 263°
2026-05-04 17:48 41.98850 -87.79464 2011 ft 137 kts 264°
2026-05-04 17:48 41.98838 -87.80733 1834 ft 136 kts 265°
2026-05-04 17:49 41.98835 -87.82008 1654 ft 135 kts 265°
2026-05-04 17:49 41.98835 -87.83258 1481 ft 134 kts 265°
2026-05-04 17:49 41.98835 -87.84506 1311 ft 134 kts 265°
2026-05-04 17:49 41.98836 -87.85751 1143 ft 134 kts 265°
2026-05-04 17:50 41.98834 -87.86997 942 ft 133 kts 266°
2026-05-04 17:50 41.98833 -87.88233 787 ft 130 kts 265°
2026-05-04 17:50 41.98834 -87.89422 654 ft 124 kts 266°
2026-05-04 17:50 41.98828 -87.90468 655 ft 87 kts 269°
2026-05-04 17:51 41.98830 -87.90979 655 ft 41 kts 270°
2026-05-04 17:51 41.98824 -87.91335 659 ft 35 kts 259°
2026-05-04 17:51 41.98744 -87.91582 663 ft 23 kts 240°
2026-05-04 17:51 41.98689 -87.91711 666 ft 13 kts 244°
2026-05-04 17:52 41.98679 -87.91777 667 ft 5 kts 263°
2026-05-04 17:52 41.98654 -87.91815 668 ft 6 kts 199°
2026-05-04 17:52 41.98590 -87.91822 668 ft 11 kts 184°
2026-05-04 17:52 41.98501 -87.91829 668 ft 14 kts 183°
2026-05-04 17:53 41.98388 -87.91830 668 ft 17 kts 181°
2026-05-04 17:53 41.98298 -87.91772 668 ft 16 kts 96°
2026-05-04 17:53 41.98291 -87.91619 667 ft 16 kts 89°
2026-05-04 17:53 41.98292 -87.91451 665 ft 18 kts 90°
2026-05-04 17:54 41.98291 -87.91277 665 ft 18 kts 91°
2026-05-04 17:54 41.98288 -87.91122 662 ft 11 kts 92°
2026-05-04 17:54 41.98287 -87.91092 662 ft 0 kts 92°
2026-05-04 17:55 41.98286 -87.91087 662 ft 2 kts 92°
2026-05-04 17:55 41.98285 -87.91016 663 ft 11 kts 87°
2026-05-04 17:55 41.98288 -87.90897 662 ft 13 kts 91°
2026-05-04 17:55 41.98228 -87.90852 664 ft 12 kts 200°
2026-05-04 17:56 41.98148 -87.90859 665 ft 11 kts 176°
2026-05-04 17:56 41.98063 -87.90855 665 ft 12 kts 186°
2026-05-04 17:56 41.97975 -87.90874 665 ft 13 kts 191°
2026-05-04 17:56 41.97881 -87.90897 665 ft 14 kts 189°
2026-05-04 17:57 41.97782 -87.90923 665 ft 14 kts 193°
2026-05-04 17:57 41.97678 -87.90944 665 ft 15 kts 189°
2026-05-04 17:57 41.97583 -87.90913 665 ft 14 kts 127°
2026-05-04 17:57 41.97595 -87.90781 665 ft 15 kts 70°
2026-05-04 17:58 41.97615 -87.90667 665 ft 7 kts 112°
2026-05-04 17:58 41.97599 -87.90630 665 ft 0 kts 123°
2026-05-04 17:58 41.97597 -87.90627 665 ft 0 kts 124°